TimeCST,TemperatureF,Dew PointF,Humidity,Sea Level PressureIn,VisibilityMPH,Wind Direction,Wind SpeedMPH,Gust SpeedMPH,PrecipitationIn,Events,Conditions,WindDirDegrees,DateUTC
12:53 AM,45.0,16.0,31,29.81,10.0,West,6.9,-,N/A,,Clear,260,2013-02-10 06:53:00
1:53 AM,46.0,12.9,26,29.81,10.0,WSW,9.2,-,N/A,,Clear,240,2013-02-10 07:53:00
2:53 AM,42.1,12.0,29,29.81,10.0,West,9.2,-,N/A,,Clear,260,2013-02-10 08:53:00
3:53 AM,43.0,12.0,28,29.81,10.0,West,13.8,-,N/A,,Clear,260,2013-02-10 09:53:00
4:53 AM,39.9,12.0,32,29.82,10.0,West,9.2,-,N/A,,Clear,260,2013-02-10 10:53:00
5:53 AM,37.0,12.9,37,29.84,10.0,West,8.1,-,N/A,,Clear,260,2013-02-10 11:53:00
6:53 AM,33.1,12.9,43,29.88,10.0,WSW,4.6,-,N/A,,Clear,240,2013-02-10 12:53:00
7:53 AM,30.9,12.9,47,29.90,10.0,West,3.5,-,N/A,,Clear,270,2013-02-10 13:53:00
8:53 AM,37.0,15.1,41,29.92,10.0,WSW,8.1,-,N/A,,Clear,240,2013-02-10 14:53:00
9:53 AM,46.0,15.1,29,29.94,10.0,WSW,6.9,-,N/A,,Clear,240,2013-02-10 15:53:00
10:53 AM,48.0,12.9,24,29.94,-9999.0,Calm,Calm,-,N/A,,Clear,0,2013-02-10 16:53:00
11:53 AM,51.1,10.9,20,29.92,-9999.0,Variable,5.8,-,N/A,,Clear,0,2013-02-10 17:53:00
12:53 PM,55.0,8.1,15,29.89,10.0,West,11.5,-,N/A,,Clear,270,2013-02-10 18:53:00
1:53 PM,57.0,8.1,14,29.84,10.0,WSW,5.8,-,N/A,,Clear,240,2013-02-10 19:53:00
2:53 PM,59.0,8.1,13,29.83,10.0,Variable,5.8,-,N/A,,Clear,0,2013-02-10 20:53:00
3:53 PM,62.1,-0.0,8,29.81,10.0,West,9.2,19.6,N/A,,Clear,260,2013-02-10 21:53:00
4:53 PM,62.1,-2.0,8,29.82,10.0,West,8.1,-,N/A,,Clear,270,2013-02-10 22:53:00
5:53 PM,61.0,-0.9,8,29.83,10.0,WSW,10.4,-,N/A,,Clear,240,2013-02-10 23:53:00
6:53 PM,53.1,1.0,12,29.87,10.0,SW,9.2,-,N/A,,Clear,220,2013-02-11 00:53:00
7:53 PM,46.0,1.0,16,29.90,10.0,West,10.4,-,N/A,,Clear,270,2013-02-11 01:53:00
8:53 PM,44.1,1.9,17,29.92,10.0,Calm,Calm,-,N/A,,Clear,0,2013-02-11 02:53:00
9:53 PM,39.0,3.9,23,29.94,10.0,North,3.5,-,N/A,,Clear,360,2013-02-11 03:53:00
10:53 PM,37.0,3.9,25,29.95,10.0,Calm,Calm,-,N/A,,Clear,0,2013-02-11 04:53:00
11:53 PM,37.9,5.0,25,29.95,10.0,SSE,5.8,-,N/A,,Clear,160,2013-02-11 05:53:00